{"data":{"norad_id":52992,"epoch":"2026-09-19T18:28:33.588480Z","epoch_age_seconds":131993,"freshness":"FRESH","line1":"1 52992U 22076G   26262.76983320 -.00000285  00000+0  25821-5 0  9998","line2":"2 52992  53.1590 301.1696 0001199  85.6238 274.4900 15.31698135232162","mean_motion":15.31698135,"eccentricity":0.0001199,"inclination_deg":53.159,"raan_deg":301.1696,"arg_perigee_deg":85.6238,"mean_anomaly_deg":274.49,"bstar":2.5821e-6,"rev_number":23216,"period_min":94.013302431814,"perigee_km":469.92437368093,"apogee_km":471.56673571755,"semimajor_km":6848.8825546992,"source":"CELESTRAK","updated_at":"2026-09-20T09:00:40.139834Z"}}